Time,TemperatureF,DewpointF,PressureIn,WindDirection,WindDirectionDegrees,WindSpeedMPH,WindSpeedGustMPH,Humidity,HourlyPrecipIn,Conditions,Clouds,dailyrainin,SoftwareType,DateUTC
2018-04-22 00:01:00,40.9,20.7,30.33,NE,50,0.0,0.0,44,0.00,,,0.00,myAcuRite,2018-04-22 04:01:00,
2018-04-22 00:06:00,40.8,20.6,30.33,East,94,0.0,0.0,44,0.00,,,0.00,myAcuRite,2018-04-22 04:06:00,
2018-04-22 00:11:00,40.7,21.0,30.33,ESE,115,0.0,0.0,45,0.00,,,0.00,myAcuRite,2018-04-22 04:11:00,
2018-04-22 00:16:00,40.4,20.2,30.33,East,93,0.0,0.0,44,0.00,,,0.00,myAcuRite,2018-04-22 04:16:00,
2018-04-22 00:21:00,40.4,20.8,30.33,ENE,69,0.0,0.0,45,0.00,,,0.00,myAcuRite,2018-04-22 04:21:00,
2018-04-22 00:26:00,40.3,20.7,30.33,ESE,114,0.0,0.0,45,0.00,,,0.00,myAcuRite,2018-04-22 04:26:00,
2018-04-22 00:31:00,40.2,20.6,30.33,East,91,0.0,0.0,45,0.00,,,0.00,myAcuRite,2018-04-22 04:31:00,
2018-04-22 00:36:00,40.0,20.4,30.33,ESE,102,0.0,0.0,45,0.00,,,0.00,myAcuRite,2018-04-22 04:36:00,
2018-04-22 00:41:00,40.0,20.9,30.34,ENE,78,0.0,0.0,46,0.00,,,0.00,myAcuRite,2018-04-22 04:41:00,
2018-04-22 00:46:00,39.8,20.7,30.34,East,87,0.0,0.0,46,0.00,,,0.00,myAcuRite,2018-04-22 04:46:00,
2018-04-22 00:51:00,39.7,20.6,30.34,East,93,0.0,0.0,46,0.00,,,0.00,myAcuRite,2018-04-22 04:51:00,
2018-04-22 00:56:00,39.6,20.5,30.34,ESE,107,0.0,0.0,46,0.00,,,0.00,myAcuRite,2018-04-22 04:56:00,
2018-04-22 01:01:00,39.4,20.4,30.34,East,96,0.0,0.0,46,0.00,,,0.00,myAcuRite,2018-04-22 05:01:00,
2018-04-22 01:06:00,39.2,20.2,30.34,ENE,78,0.0,0.0,46,0.00,,,0.00,myAcuRite,2018-04-22 05:06:00,
2018-04-22 01:11:00,39.2,20.2,30.34,ENE,78,0.0,0.0,46,0.00,,,0.00,myAcuRite,2018-04-22 05:11:00,
2018-04-22 01:16:00,39.1,20.1,30.34,ENE,73,0.0,0.0,46,0.00,,,0.00,myAcuRite,2018-04-22 05:16:00,
2018-04-22 01:21:00,39.0,20.0,30.34,ESE,106,0.0,0.0,46,0.00,,,0.00,myAcuRite,2018-04-22 05:21:00,
2018-04-22 01:26:00,38.9,20.9,30.34,ESE,106,0.0,0.0,48,0.00,,,0.00,myAcuRite,2018-04-22 05:26:00,
2018-04-22 01:31:00,38.7,19.2,30.34,East,100,0.0,0.0,45,0.00,,,0.00,myAcuRite,2018-04-22 05:31:00,
2018-04-22 01:36:00,38.6,19.1,30.34,ESE,102,0.0,0.0,45,0.00,,,0.00,myAcuRite,2018-04-22 05:36:00,
2018-04-22 01:41:00,38.3,19.4,30.34,ESE,113,0.0,0.0,46,0.00,,,0.00,myAcuRite,2018-04-22 05:41:00,
2018-04-22 01:46:00,38.2,19.8,30.34,ESE,113,0.0,0.0,47,0.00,,,0.00,myAcuRite,2018-04-22 05:46:00,
2018-04-22 01:51:00,38.0,19.6,30.34,NE,56,0.0,0.0,47,0.00,,,0.00,myAcuRite,2018-04-22 05:51:00,
2018-04-22 01:56:00,37.8,19.4,30.34,East,89,0.0,0.0,47,0.00,,,0.00,myAcuRite,2018-04-22 05:56:00,
2018-04-22 02:01:00,37.6,19.2,30.34,East,89,0.0,0.0,47,0.00,,,0.00,myAcuRite,2018-04-22 06:01:00,
2018-04-22 02:06:00,37.6,18.7,30.34,NW,323,0.0,0.0,46,0.00,,,0.00,myAcuRite,2018-04-22 06:06:00,
2018-04-22 02:11:00,37.7,18.8,30.35,ENE,65,0.0,0.0,46,0.00,,,0.00,myAcuRite,2018-04-22 06:11:00,
2018-04-22 02:16:00,37.6,19.7,30.34,ENE,65,0.0,0.0,48,0.00,,,0.00,myAcuRite,2018-04-22 06:16:00,
2018-04-22 02:21:00,37.3,18.9,30.35,NE,56,0.0,0.0,47,0.00,,,0.00,myAcuRite,2018-04-22 06:21:00,
2018-04-22 02:26:00,37.1,18.3,30.34,ENE,59,0.0,0.0,46,0.00,,,0.00,myAcuRite,2018-04-22 06:26:00,
2018-04-22 02:31:00,36.8,19.0,30.34,East,85,0.0,0.0,48,0.00,,,0.00,myAcuRite,2018-04-22 06:31:00,
2018-04-22 02:36:00,36.6,18.8,30.34,East,96,0.0,0.0,48,0.00,,,0.00,myAcuRite,2018-04-22 06:36:00,
2018-04-22 02:41:00,36.5,18.7,30.34,ESE,121,0.0,0.0,48,0.00,,,0.00,myAcuRite,2018-04-22 06:41:00,
2018-04-22 02:46:00,36.3,19.0,30.34,ESE,109,0.0,0.0,49,0.00,,,0.00,myAcuRite,2018-04-22 06:46:00,
2018-04-22 02:51:00,36.1,19.3,30.34,East,84,0.0,0.0,50,0.00,,,0.00,myAcuRite,2018-04-22 06:51:00,
2018-04-22 02:56:00,35.9,19.1,30.35,East,95,0.0,0.0,50,0.00,,,0.00,myAcuRite,2018-04-22 06:56:00,
2018-04-22 03:01:00,35.8,19.0,30.34,ENE,68,0.0,0.0,50,0.00,,,0.00,myAcuRite,2018-04-22 07:01:00,
2018-04-22 03:06:00,35.8,19.0,30.35,ENE,60,0.0,0.0,50,0.00,,,0.00,myAcuRite,2018-04-22 07:06:00,
2018-04-22 03:11:00,35.8,19.0,30.35,ENE,72,0.0,0.0,50,0.00,,,0.00,myAcuRite,2018-04-22 07:11:00,
2018-04-22 03:16:00,35.7,18.9,30.34,ENE,62,0.0,0.0,50,0.00,,,0.00,myAcuRite,2018-04-22 07:16:00,
2018-04-22 03:21:00,35.7,18.4,30.34,ENE,76,0.0,0.0,49,0.00,,,0.00,myAcuRite,2018-04-22 07:21:00,
2018-04-22 03:26:00,35.9,18.6,30.35,ENE,59,0.0,0.0,49,0.00,,,0.00,myAcuRite,2018-04-22 07:26:00,
2018-04-22 03:31:00,35.9,18.6,30.35,South,169,0.0,0.0,49,0.00,,,0.00,myAcuRite,2018-04-22 07:31:00,
2018-04-22 03:36:00,35.9,18.6,30.35,SW,231,0.0,0.0,49,0.00,,,0.00,myAcuRite,2018-04-22 07:36:00,
2018-04-22 03:41:00,35.8,19.0,30.35,SSW,193,0.0,0.0,50,0.00,,,0.00,myAcuRite,2018-04-22 07:41:00,
2018-04-22 03:46:00,35.6,18.8,30.35,SSE,147,0.0,0.0,50,0.00,,,0.00,myAcuRite,2018-04-22 07:46:00,
2018-04-22 03:51:00,35.4,19.1,30.34,SE,143,0.0,0.0,51,0.00,,,0.00,myAcuRite,2018-04-22 07:51:00,
2018-04-22 03:56:00,35.2,18.9,30.35,East,98,0.0,0.0,51,0.00,,,0.00,myAcuRite,2018-04-22 07:56:00,
2018-04-22 04:01:00,35.1,18.8,30.34,NE,45,0.0,0.0,51,0.00,,,0.00,myAcuRite,2018-04-22 08:01:00,
2018-04-22 04:06:00,35.0,19.2,30.34,SW,220,0.0,0.0,52,0.00,,,0.00,myAcuRite,2018-04-22 08:06:00,
2018-04-22 04:12:00,35.3,19.0,30.34,East,89,0.0,0.0,51,0.00,,,0.00,myAcuRite,2018-04-22 08:12:00,
2018-04-22 04:17:00,35.4,18.6,30.34,NE,46,0.0,0.0,50,0.00,,,0.00,myAcuRite,2018-04-22 08:17:00,
2018-04-22 04:22:00,35.5,19.2,30.34,NE,56,0.0,0.0,51,0.00,,,0.00,myAcuRite,2018-04-22 08:22:00,
2018-04-22 04:27:00,35.7,18.9,30.34,WSW,256,0.0,0.0,50,0.00,,,0.00,myAcuRite,2018-04-22 08:27:00,
2018-04-22 04:32:00,35.9,18.6,30.34,NE,55,1.0,1.0,49,0.00,,,0.00,myAcuRite,2018-04-22 08:32:00,
2018-04-22 04:37:00,36.2,18.4,30.34,WSW,253,0.0,0.0,48,0.00,,,0.00,myAcuRite,2018-04-22 08:37:00,
2018-04-22 04:42:00,36.4,19.1,30.34,NNW,336,0.0,1.0,49,0.00,,,0.00,myAcuRite,2018-04-22 08:42:00,
2018-04-22 04:47:00,36.5,18.7,30.34,NNE,12,0.0,0.0,48,0.00,,,0.00,myAcuRite,2018-04-22 08:47:00,
2018-04-22 04:52:00,36.6,18.8,30.34,NNW,336,3.0,3.0,48,0.00,,,0.00,myAcuRite,2018-04-22 08:52:00,
2018-04-22 04:57:00,36.8,19.0,30.34,East,98,1.0,1.0,48,0.00,,,0.00,myAcuRite,2018-04-22 08:57:00,
2018-04-22 05:02:00,36.8,19.0,30.34,NNW,340,0.0,1.0,48,0.00,,,0.00,myAcuRite,2018-04-22 09:02:00,
2018-04-22 05:07:00,36.8,19.0,30.34,SSE,158,0.0,0.0,48,0.00,,,0.00,myAcuRite,2018-04-22 09:07:00,
2018-04-22 05:12:00,36.9,19.1,30.35,WNW,300,0.0,0.0,48,0.00,,,0.00,myAcuRite,2018-04-22 09:12:00,
2018-04-22 05:17:00,36.7,18.9,30.34,North,356,0.0,0.0,48,0.00,,,0.00,myAcuRite,2018-04-22 09:17:00,
2018-04-22 05:22:00,36.8,18.5,30.34,WNW,303,0.0,0.0,47,0.00,,,0.00,myAcuRite,2018-04-22 09:22:00,
2018-04-22 05:27:00,36.8,19.0,30.34,North,353,0.0,0.0,48,0.00,,,0.00,myAcuRite,2018-04-22 09:27:00,
2018-04-22 05:32:00,36.9,18.6,30.34,NE,34,0.0,0.0,47,0.00,,,0.00,myAcuRite,2018-04-22 09:32:00,
2018-04-22 05:37:00,37.2,18.8,30.35,WNW,285,0.0,0.0,47,0.00,,,0.00,myAcuRite,2018-04-22 09:37:00,
2018-04-22 05:42:00,37.0,18.7,30.35,South,189,1.0,1.0,47,0.00,,,0.00,myAcuRite,2018-04-22 09:42:00,
2018-04-22 05:47:00,37.1,18.3,30.35,West,273,0.0,0.0,46,0.00,,,0.00,myAcuRite,2018-04-22 09:47:00,
2018-04-22 05:52:00,37.0,18.7,30.35,ENE,66,0.0,0.0,47,0.00,,,0.00,myAcuRite,2018-04-22 09:52:00,
2018-04-22 05:57:00,36.6,18.3,30.35,East,79,0.0,0.0,47,0.00,,,0.00,myAcuRite,2018-04-22 09:57:00,
2018-04-22 06:02:00,36.2,18.4,30.35,NE,38,0.0,0.0,48,0.00,,,0.00,myAcuRite,2018-04-22 10:02:00,
2018-04-22 06:07:00,36.2,17.9,30.35,North,1,2.0,2.0,47,0.00,,,0.00,myAcuRite,2018-04-22 10:07:00,
2018-04-22 06:12:00,36.5,18.2,30.36,SSW,211,0.0,1.0,47,0.00,,,0.00,myAcuRite,2018-04-22 10:12:00,
2018-04-22 06:17:00,36.7,17.9,30.36,WSW,256,1.0,1.0,46,0.00,,,0.00,myAcuRite,2018-04-22 10:17:00,
2018-04-22 06:22:00,36.9,18.1,30.36,WSW,246,0.0,0.0,46,0.00,,,0.00,myAcuRite,2018-04-22 10:22:00,
2018-04-22 06:27:00,37.0,18.7,30.36,NE,54,0.0,0.0,47,0.00,,,0.00,myAcuRite,2018-04-22 10:27:00,
2018-04-22 06:32:00,37.0,18.2,30.36,South,176,1.0,1.0,46,0.00,,,0.00,myAcuRite,2018-04-22 10:32:00,
2018-04-22 06:37:00,37.1,18.8,30.36,NW,326,0.0,0.0,47,0.00,,,0.00,myAcuRite,2018-04-22 10:37:00,
2018-04-22 06:42:00,37.1,18.3,30.36,West,263,0.0,0.0,46,0.00,,,0.00,myAcuRite,2018-04-22 10:42:00,
2018-04-22 06:47:00,37.2,18.3,30.37,NNE,15,0.0,0.0,46,0.00,,,0.00,myAcuRite,2018-04-22 10:47:00,
2018-04-22 06:52:00,37.5,18.1,30.37,SW,226,0.0,0.0,45,0.00,,,0.00,myAcuRite,2018-04-22 10:52:00,
2018-04-22 06:57:00,37.6,18.7,30.37,SW,223,1.0,1.0,46,0.00,,,0.00,myAcuRite,2018-04-22 10:57:00,
2018-04-22 07:02:00,37.8,18.4,30.37,NE,43,0.0,0.0,45,0.00,,,0.00,myAcuRite,2018-04-22 11:02:00,
2018-04-22 07:07:00,37.6,18.7,30.37,WSW,247,0.0,0.0,46,0.00,,,0.00,myAcuRite,2018-04-22 11:07:00,
2018-04-22 07:12:00,37.6,18.7,30.37,SW,216,0.0,0.0,46,0.00,,,0.00,myAcuRite,2018-04-22 11:12:00,
2018-04-22 07:17:00,37.8,19.4,30.37,North,354,0.0,0.0,47,0.00,,,0.00,myAcuRite,2018-04-22 11:17:00,
2018-04-22 07:22:00,38.0,19.1,30.37,WNW,288,0.0,0.0,46,0.00,,,0.00,myAcuRite,2018-04-22 11:22:00,
2018-04-22 07:27:00,38.5,19.5,30.37,West,269,0.0,0.0,46,0.00,,,0.00,myAcuRite,2018-04-22 11:27:00,
2018-04-22 07:32:00,38.8,19.8,30.37,WSW,256,0.0,0.0,46,0.00,,,0.00,myAcuRite,2018-04-22 11:32:00,
2018-04-22 07:37:00,39.2,19.7,30.37,SW,225,0.0,0.0,45,0.00,,,0.00,myAcuRite,2018-04-22 11:37:00,
2018-04-22 07:42:00,40.0,20.4,30.37,SSW,210,0.0,0.0,45,0.00,,,0.00,myAcuRite,2018-04-22 11:42:00,
2018-04-22 07:47:00,40.8,21.1,30.37,NNW,339,0.0,0.0,45,0.00,,,0.00,myAcuRite,2018-04-22 11:47:00,
2018-04-22 07:52:00,41.3,20.5,30.38,SW,231,0.0,0.0,43,0.00,,,0.00,myAcuRite,2018-04-22 11:52:00,
2018-04-22 07:57:00,42.0,21.1,30.37,SSE,164,0.0,0.0,43,0.00,,,0.00,myAcuRite,2018-04-22 11:57:00,
2018-04-22 08:02:00,42.8,21.3,30.38,North,356,3.0,3.0,42,0.00,,,0.00,myAcuRite,2018-04-22 12:02:00,
2018-04-22 08:07:00,43.3,20.6,30.38,SSE,162,1.0,3.0,40,0.00,,,0.00,myAcuRite,2018-04-22 12:07:00,
2018-04-22 08:12:00,43.9,21.2,30.37,NNE,29,2.0,3.0,40,0.00,,,0.00,myAcuRite,2018-04-22 12:12:00,
2018-04-22 08:17:00,44.7,21.3,30.37,NNE,31,2.0,2.0,39,0.00,,,0.00,myAcuRite,2018-04-22 12:17:00,
2018-04-22 08:22:00,45.1,21.0,30.37,NNE,14,2.0,4.0,38,0.00,,,0.00,myAcuRite,2018-04-22 12:22:00,
2018-04-22 08:23:00,45.2,20.5,30.37,ENE,75,2.0,4.0,37,0.00,,,0.00,myAcuRite,2018-04-22 12:23:00,
2018-04-22 08:28:00,45.6,20.2,30.38,ESE,104,2.0,4.0,36,0.00,,,0.00,myAcuRite,2018-04-22 12:28:00,
2018-04-22 08:33:00,46.0,19.9,30.37,NE,36,2.0,3.0,35,0.00,,,0.00,myAcuRite,2018-04-22 12:33:00,
2018-04-22 08:38:00,46.4,20.9,30.38,SE,144,0.0,2.0,36,0.00,,,0.00,myAcuRite,2018-04-22 12:38:00,
2018-04-22 08:43:00,46.9,20.0,30.38,SW,226,3.0,4.0,34,0.00,,,0.00,myAcuRite,2018-04-22 12:43:00,
2018-04-22 08:48:00,47.3,19.7,30.38,WSW,238,3.0,4.0,33,0.00,,,0.00,myAcuRite,2018-04-22 12:48:00,
2018-04-22 08:53:00,47.7,21.4,30.38,NNW,329,1.0,3.0,35,0.00,,,0.00,myAcuRite,2018-04-22 12:53:00,
2018-04-22 08:58:00,48.6,20.8,30.38,SSE,154,2.0,5.0,33,0.00,,,0.00,myAcuRite,2018-04-22 12:58:00,
2018-04-22 09:03:00,49.1,20.5,30.38,NNE,24,2.0,4.0,32,0.00,,,0.00,myAcuRite,2018-04-22 13:03:00,
2018-04-22 09:08:00,49.4,18.5,30.38,North,2,0.0,2.0,29,0.00,,,0.00,myAcuRite,2018-04-22 13:08:00,
2018-04-22 09:13:00,49.6,20.2,30.38,SW,235,1.0,4.0,31,0.00,,,0.00,myAcuRite,2018-04-22 13:13:00,
2018-04-22 09:18:00,50.0,19.0,30.38,NNE,16,3.0,3.0,29,0.00,,,0.00,myAcuRite,2018-04-22 13:18:00,
2018-04-22 09:23:00,50.1,18.3,30.38,North,8,3.0,5.0,28,0.00,,,0.00,myAcuRite,2018-04-22 13:23:00,
2018-04-22 09:28:00,50.3,19.3,30.38,South,180,2.0,3.0,29,0.00,,,0.00,myAcuRite,2018-04-22 13:28:00,
2018-04-22 09:33:00,50.7,19.6,30.37,SW,215,1.0,3.0,29,0.00,,,0.00,myAcuRite,2018-04-22 13:33:00,
2018-04-22 09:38:00,51.1,20.8,30.38,ENE,62,2.0,5.0,30,0.00,,,0.00,myAcuRite,2018-04-22 13:38:00,
2018-04-22 09:43:00,51.4,18.6,30.38,SW,221,2.0,5.0,27,0.00,,,0.00,myAcuRite,2018-04-22 13:43:00,
2018-04-22 09:48:00,51.6,16.9,30.38,NNW,341,4.0,6.0,25,0.00,,,0.00,myAcuRite,2018-04-22 13:48:00,
2018-04-22 09:53:00,51.2,18.4,30.37,North,9,5.0,5.0,27,0.00,,,0.00,myAcuRite,2018-04-22 13:53:00,
2018-04-22 09:58:00,51.4,17.7,30.37,WSW,240,2.0,4.0,26,0.00,,,0.00,myAcuRite,2018-04-22 13:58:00,
2018-04-22 10:03:00,51.9,17.2,30.38,West,281,3.0,7.0,25,0.00,,,0.00,myAcuRite,2018-04-22 14:03:00,
2018-04-22 10:08:00,51.9,17.2,30.38,NNE,31,8.0,8.0,25,0.00,,,0.00,myAcuRite,2018-04-22 14:08:00,
2018-04-22 10:13:00,51.8,18.9,30.37,ESE,102,3.0,5.0,27,0.00,,,0.00,myAcuRite,2018-04-22 14:13:00,
2018-04-22 10:18:00,52.3,17.5,30.38,East,84,2.0,5.0,25,0.00,,,0.00,myAcuRite,2018-04-22 14:18:00,
2018-04-22 10:23:00,52.7,19.7,30.37,NNW,330,3.0,5.0,27,0.00,,,0.00,myAcuRite,2018-04-22 14:23:00,
2018-04-22 10:28:00,52.9,18.1,30.37,SSE,163,6.0,7.0,25,0.00,,,0.00,myAcuRite,2018-04-22 14:28:00,
2018-04-22 10:33:00,53.0,18.1,30.37,SSE,168,3.0,8.0,25,0.00,,,0.00,myAcuRite,2018-04-22 14:33:00,
2018-04-22 10:38:00,53.1,17.3,30.37,SSW,202,2.0,9.0,24,0.00,,,0.00,myAcuRite,2018-04-22 14:38:00,
2018-04-22 10:43:00,53.2,18.3,30.38,NW,323,0.0,5.0,25,0.00,,,0.00,myAcuRite,2018-04-22 14:43:00,
2018-04-22 10:52:00,52.7,14.9,30.37,NNE,19,4.0,4.0,22,0.00,,,0.00,myAcuRite,2018-04-22 14:52:00,
2018-04-22 10:57:00,53.4,16.5,30.37,SSE,168,2.0,7.0,23,0.00,,,0.00,myAcuRite,2018-04-22 14:57:00,
2018-04-22 11:02:00,53.1,15.3,30.37,SW,224,2.0,6.0,22,0.00,,,0.00,myAcuRite,2018-04-22 15:02:00,
2018-04-22 11:07:00,53.3,17.4,30.37,NNW,332,4.0,5.0,24,0.00,,,0.00,myAcuRite,2018-04-22 15:07:00,
2018-04-22 11:12:00,53.4,16.5,30.36,East,81,3.0,4.0,23,0.00,,,0.00,myAcuRite,2018-04-22 15:12:00,
2018-04-22 11:17:00,53.2,17.4,30.37,SE,140,4.0,11.0,24,0.00,,,0.00,myAcuRite,2018-04-22 15:17:00,
2018-04-22 11:22:00,53.5,17.6,30.37,SE,133,3.0,4.0,24,0.00,,,0.00,myAcuRite,2018-04-22 15:22:00,
2018-04-22 11:27:00,53.4,16.5,30.37,SW,232,6.0,10.0,23,0.00,,,0.00,myAcuRite,2018-04-22 15:27:00,
2018-04-22 11:32:00,53.8,16.9,30.36,East,93,4.0,10.0,23,0.00,,,0.00,myAcuRite,2018-04-22 15:32:00,
2018-04-22 11:35:00,53.9,18.9,30.36,NE,52,4.0,10.0,25,0.00,,,0.00,myAcuRite,2018-04-22 15:35:00,
2018-04-22 11:40:00,54.1,15.0,30.36,NNE,20,2.0,9.0,21,0.00,,,0.00,myAcuRite,2018-04-22 15:40:00,
2018-04-22 11:45:00,54.8,16.7,30.36,NNW,338,3.0,6.0,22,0.00,,,0.00,myAcuRite,2018-04-22 15:45:00,
2018-04-22 11:50:00,54.5,17.5,30.36,SW,219,0.0,8.0,23,0.00,,,0.00,myAcuRite,2018-04-22 15:50:00,
2018-04-22 11:55:00,54.7,16.6,30.36,NE,35,7.0,8.0,22,0.00,,,0.00,myAcuRite,2018-04-22 15:55:00,
2018-04-22 12:00:00,54.5,15.4,30.36,South,177,0.0,6.0,21,0.00,,,0.00,myAcuRite,2018-04-22 16:00:00,
2018-04-22 12:05:00,54.6,18.5,30.36,ENE,59,1.0,4.0,24,0.00,,,0.00,myAcuRite,2018-04-22 16:05:00,
2018-04-22 12:10:00,55.9,18.7,30.36,East,92,0.0,6.0,23,0.00,,,0.00,myAcuRite,2018-04-22 16:10:00,
2018-04-22 12:15:00,56.1,16.7,30.36,WNW,284,5.0,9.0,21,0.00,,,0.00,myAcuRite,2018-04-22 16:15:00,
2018-04-22 12:20:00,56.2,18.9,30.36,East,88,1.0,8.0,23,0.00,,,0.00,myAcuRite,2018-04-22 16:20:00,
2018-04-22 12:25:00,56.8,18.4,30.36,North,352,5.0,8.0,22,0.00,,,0.00,myAcuRite,2018-04-22 16:25:00,
2018-04-22 12:30:00,56.9,21.5,30.35,NNE,27,0.0,9.0,25,0.00,,,0.00,myAcuRite,2018-04-22 16:30:00,
2018-04-22 12:35:00,57.6,19.0,30.35,East,83,2.0,3.0,22,0.00,,,0.00,myAcuRite,2018-04-22 16:35:00,
2018-04-22 12:40:00,58.1,19.5,30.35,WSW,241,7.0,7.0,22,0.00,,,0.00,myAcuRite,2018-04-22 16:40:00,
2018-04-22 12:45:00,57.4,19.9,30.36,North,3,0.0,6.0,23,0.00,,,0.00,myAcuRite,2018-04-22 16:45:00,
2018-04-22 12:50:00,57.7,19.1,30.35,North,6,5.0,7.0,22,0.00,,,0.00,myAcuRite,2018-04-22 16:50:00,
2018-04-22 12:55:00,57.7,15.7,30.35,SW,220,2.0,6.0,19,0.00,,,0.00,myAcuRite,2018-04-22 16:55:00,
2018-04-22 13:00:00,57.7,19.1,30.35,SSE,156,2.0,7.0,22,0.00,,,0.00,myAcuRite,2018-04-22 17:00:00,
2018-04-22 13:05:00,58.3,20.7,30.35,SW,234,10.0,10.0,23,0.00,,,0.00,myAcuRite,2018-04-22 17:05:00,
2018-04-22 13:10:00,57.8,19.2,30.35,SSW,201,3.0,8.0,22,0.00,,,0.00,myAcuRite,2018-04-22 17:10:00,
2018-04-22 13:15:00,58.5,20.8,30.35,WSW,252,5.0,9.0,23,0.00,,,0.00,myAcuRite,2018-04-22 17:15:00,
2018-04-22 13:20:00,59.1,16.9,30.35,WSW,245,7.0,7.0,19,0.00,,,0.00,myAcuRite,2018-04-22 17:20:00,
2018-04-22 13:25:00,58.3,18.5,30.35,ENE,70,3.0,7.0,21,0.00,,,0.00,myAcuRite,2018-04-22 17:25:00,
2018-04-22 13:30:00,58.9,20.1,30.35,East,98,6.0,7.0,22,0.00,,,0.00,myAcuRite,2018-04-22 17:30:00,
2018-04-22 13:35:00,58.7,18.9,30.34,NW,305,2.0,10.0,21,0.00,,,0.00,myAcuRite,2018-04-22 17:35:00,
2018-04-22 13:40:00,59.4,20.6,30.34,NE,36,1.0,6.0,22,0.00,,,0.00,myAcuRite,2018-04-22 17:40:00,
2018-04-22 13:45:00,59.8,20.9,30.34,NNE,12,3.0,6.0,22,0.00,,,0.00,myAcuRite,2018-04-22 17:45:00,
2018-04-22 13:50:00,60.4,19.2,30.34,NNE,33,4.0,5.0,20,0.00,,,0.00,myAcuRite,2018-04-22 17:50:00,
2018-04-22 13:55:00,60.2,19.0,30.34,NE,51,3.0,9.0,20,0.00,,,0.00,myAcuRite,2018-04-22 17:55:00,
2018-04-22 14:00:00,60.0,15.1,30.34,SSW,211,3.0,6.0,17,0.00,,,0.00,myAcuRite,2018-04-22 18:00:00,
2018-04-22 14:05:00,60.1,17.7,30.34,NE,45,3.0,6.0,19,0.00,,,0.00,myAcuRite,2018-04-22 18:05:00,
2018-04-22 14:10:00,60.1,17.7,30.34,NNE,28,5.0,6.0,19,0.00,,,0.00,myAcuRite,2018-04-22 18:10:00,
2018-04-22 14:15:00,60.2,19.0,30.34,WSW,254,2.0,7.0,20,0.00,,,0.00,myAcuRite,2018-04-22 18:15:00,